Weather History for KTHV - September, 2013

Change the Weather History Date:

Thursday, September 26, 2013

  Actual Average Record
Temperature  
Mean Temperature 60 °F -  
Max Temperature 75 °F 0 °F 90 °F (2007)
Min Temperature 44 °F - 37 °F (2001)
Degree Days  
Heating Degree Days 6    
Growing Degree Days 10 (Base 50)    
Moisture  
Dew Point 47 °F    
Average Humidity 74    
Maximum Humidity 93    
Minimum Humidity 38    
Precipitation  
Precipitation 0.00 in - - ()
Sea Level Pressure  
Sea Level Pressure 30.02 in    
Wind  
Wind Speed 1 mph (NE)    
Max Wind Speed 6 mph    
Max Gust Speed -    
Visibility 10 miles    
Events      
Averages and records for this station are not official NWS values.
T = Trace of Precipitation, MM = Missing Value Source: NWS Daily Summary

Daily Weather History Graph

Daily Weather History Graph

Search for Another Location

Airport or City:

Trip Planner

Search our weather history database for the weather conditions in past years. The results will help you decide how hot, cold, wet, or windy it might be!

Date:

Astronomy

Sep. 26, 2013 Rise Set
Actual Time 6:59 AM EDT 6:57 PM EDT
Civil Twilight 6:32 AM EDT 7:24 PM EDT
Nautical Twilight 6:00 AM EDT 7:55 PM EDT
Astronomical Twilight 5:28 AM EDT 8:27 PM EDT
Moon 11:54 PM EDT (9/26) 1:49 PM EDT (9/26)
Length of Visible Light 12h 52m
Length of Day
11h 58m
Waning Gibbous, 55% of the Moon is Illuminated
Sep 26
Waning Gibbous
Sep 26
Last Quarter
Oct 4
New
Oct 11
First Quarter
Oct 18
Full

Hourly Weather History & Observations

Time (EDT) Temp. Dew Point Humidity Pressure Visibility Wind Dir Wind Speed Gust Speed Precip Events Conditions
12:53 AM 46.9 °F 45.0 °F 93% 29.96 in 10.0 mi Calm Calm - N/A   Clear
1:53 AM 46.9 °F 45.0 °F 93% 29.96 in 10.0 mi Calm Calm - N/A   Clear
2:53 AM 46.0 °F 44.1 °F 93% 29.96 in 9.0 mi Calm Calm - N/A   Clear
3:53 AM 46.0 °F 44.1 °F 93% 29.96 in 10.0 mi Calm Calm - N/A   Clear
4:53 AM 45.0 °F 43.0 °F 93% 29.97 in 10.0 mi Calm Calm - N/A   Clear
5:53 AM 45.0 °F 43.0 °F 93% 29.98 in 10.0 mi Calm Calm - N/A   Clear
6:53 AM 44.1 °F 41.0 °F 89% 29.99 in 10.0 mi Calm Calm - N/A   Clear
7:53 AM 46.0 °F 44.1 °F 93% 30.02 in 10.0 mi Calm Calm - N/A   Clear
8:53 AM 50.0 °F 46.9 °F 89% 30.03 in 10.0 mi Calm Calm - N/A   Clear
9:53 AM 57.0 °F 51.1 °F 81% 30.05 in 10.0 mi Calm Calm - N/A   Clear
10:53 AM 64.9 °F 51.1 °F 61% 30.05 in 10.0 mi Calm Calm - N/A   Clear
11:53 AM 70.0 °F 50.0 °F 49% 30.04 in 10.0 mi East 4.6 mph - N/A   Clear
12:53 PM 71.1 °F 50.0 °F 47% 30.03 in 10.0 mi Variable 3.5 mph - N/A   Clear
1:53 PM 73.0 °F 48.0 °F 41% 30.02 in 10.0 mi Variable 3.5 mph - N/A   Partly Cloudy
2:53 PM 73.9 °F 48.9 °F 41% 30.02 in 10.0 mi NE 5.8 mph - N/A   Clear
3:53 PM 75.0 °F 48.0 °F 38% 30.01 in 10.0 mi NNE 5.8 mph - N/A   Partly Cloudy
4:53 PM 73.9 °F 48.0 °F 40% 30.02 in 10.0 mi NE 4.6 mph - N/A   Clear
5:53 PM 73.0 °F 46.0 °F 38% 30.03 in 10.0 mi Calm Calm - N/A   Partly Cloudy
6:53 PM 61.0 °F 53.1 °F 75% 30.04 in 10.0 mi West 3.5 mph - N/A   Clear
7:53 PM 55.9 °F 51.1 °F 84% 30.06 in 10.0 mi Calm Calm - N/A   Clear
8:53 PM 54.0 °F 50.0 °F 86% 30.08 in 10.0 mi Calm Calm - N/A   Partly Cloudy
9:53 PM 52.0 °F 48.9 °F 89% 30.08 in 10.0 mi Calm Calm - N/A   Clear
10:53 PM 51.1 °F 48.0 °F 89% 30.08 in 10.0 mi Calm Calm - N/A   Clear
11:53 PM 52.0 °F 50.0 °F 93% 30.09 in 10.0 mi Calm Calm - N/A   Overcast